Regional Weather Roundup
Issued by NWS

Home | Current Version | Previous Version | Graphics & Text | Print | Product List | Glossary On
Versions: 1 2 3 4 5 6 7 8 9 10 11 12 13 14 15 16 17 18 19 20 21 22 23 24 25 26 27
000
ASUS45 KTFX 222110
RWRMT
MONTANA REGIONAL WEATHER ROUNDUP
NATIONAL WEATHER SERVICE GREAT FALLS MT
300 PM MDT MON AUG 22 2016

NOTE: "FAIR" INDICATES FEW OR NO CLOUDS BELOW 12000 FEET WITH NO
SIGNIFICANT WEATHER AND/OR OBSTRUCTIONS TO VISIBILITY.

MTZ001>007-043-222200-
WEST OF THE DIVIDE

CITY           SKY/WX    TMP DP  RH WIND       PRES   REMARKS
KALISPELL      PTSUNNY   71  29  21 SW16G24   29.82F
MISSOULA       MOSUNNY   76  28  17 W20G26    29.89S
BUTTE          SUNNY     76  18  11 W17G29    29.89F
MULLAN PASS    PTSUNNY   54  32  43 VRB5      30.03R
DEER LODGE       N/A     75  14   9 SW10G22   29.89S
EUREKA           N/A     70  28  21 SW15G23   29.85R
HAMILTON         N/A     75  21  13 W8        29.89S
LIBBY            N/A     68  28  22 W3        29.89S
$$

MTZ008-052>055-222200-
SOUTHWEST MONTANA

CITY           SKY/WX    TMP DP  RH WIND       PRES   REMARKS
BOZEMAN        CLOUDY    81  38  21 NW13      29.78S
DILLON         SUNNY     82  21  10 W17G28    29.84F
W YELLOWSTONE  MOSUNNY   75  28  17 S22G37    29.99F
ENNIS          SUNNY     86   7   5 SW15G25   29.88F
THREE FORKS      N/A     85  85 100 W14       29.79F HX 107
TWIN BRIDGES     N/A     83  32  16 S13       29.84
$$

MTZ009-010-012-014-046-048-049-054-222200-
EAST SLOPES AND CENTRAL MONTANA

CITY           SKY/WX    TMP DP  RH WIND       PRES   REMARKS
CUT BANK       MOSUNNY   68  25  19 SW37G47   29.77F HAZE
GREAT FALLS    SUNNY     80  15   8 SW28G38   29.76R
MALMSTROM AFB  SUNNY     78  20  11 W20G33    29.76S
HELENA         SUNNY     83  20   9 W23G30    29.79F
CHOTEAU          N/A     77  19  11 W16G24    29.79R
$$

MTZ011-013-016-021-045-047-050-051-222200-
NORTH CENTRAL MONTANA

CITY           SKY/WX    TMP DP  RH WIND       PRES   REMARKS
HAVRE          CLOUDY    83  26  12 W14G29    29.64S HAZE
LEWISTOWN      SUNNY     78  33  19 NW10G17   29.78R
N BAR RANCH      N/A     86  25  10 NW12G23   29.77F
CHINOOK          N/A     84  30  14 SW9       29.63S
$$

MTZ017>020-022>027-061-062-222200-
NORTHEAST MONTANA

CITY           SKY/WX    TMP DP  RH WIND       PRES   REMARKS
GLASGOW        SUNNY     90  33  13 NW14G26   29.61S
JORDAN           N/A     91  26   9 W9        29.64F
SIDNEY         SUNNY     97  38  13 VRB5      29.57F HX  92
WOLF POINT     SUNNY     96  31  10 W10G22    29.59F HX  90
PLENTYWOOD       N/A     95  32  11 W15       29.58S HX  90
$$

MTZ028>42-056>058-222200-
SOUTHCENTRAL AND SOUTHEAST MONTANA

CITY           SKY/WX    TMP DP  RH WIND       PRES   REMARKS
BAKER          SUNNY     92  46  20 W12       29.65F
BILLINGS       PTSUNNY   89  27  10 CALM      29.71F
LIVINGSTON     SUNNY     88  24  10 W22       29.75S
MILES CITY     SUNNY     94  41  16 SW8       29.62F HX  90
FORSYTH          N/A     90  39  17 W8        29.65F
LAUREL           N/A     89  35  14 NE3       29.73F
ROUNDUP          N/A     90  32  12 E3        29.64F
$$

REGIONAL REPORTS...DAKOTAS

CITY           SKY/WX    TMP DP  RH WIND       PRES   REMARKS
WILLISTON      SUNNY     98  34  10 SW12      29.58F HX  92
MINOT          SUNNY     95  48  20 SE12      29.58F HX  91
DICKINSON      SUNNY     95  39  14 S16       29.60S HX  91
CROSBY           N/A     97  39  13 SW12      29.58F HX  92
BISMARCK       SUNNY     88  66  48 SE10      29.61F HX  90
GRAND FORKS    SUNNY     84  64  50 S15       29.66F
FARGO          SUNNY     83  66  56 SE15G24   29.69F
BUFFALO SD       N/A     95  46  18 W13       29.59F HX  91
RAPID CITY     SUNNY    100  26   7 W16       29.66F HX  93
$$

REGIONAL REPORTS...WYOMING/IDAHO/WASHINGTON

CITY           SKY/WX    TMP DP  RH WIND       PRES   REMARKS
GILLETTE       SUNNY     94  20   7 NW8       29.76F
SHERIDAN       SUNNY     93  33  12 N12       29.74F
BUFFALO WY     SUNNY     92  15   6 MISG      29.81F
CODY           SUNNY     84  36  17 NW6       29.82F
YELLOWSTONE LA   N/A     72   5   7 W9G25     30.11S
IDAHO FALLS    CLOUDY    83  30  14 S29G38    29.92F
SALMON         SUNNY     81  28  15 SW15G30   29.79S
BOISE          MOSUNNY   81  27  14 NW9       29.94F
SPOKANE        MOSUNNY   70  30  22 SW16      29.94F
$$

REGIONAL REPORTS...ALBERTA

CITY           SKY/WX    TMP DP  RH WIND       PRES   REMARKS
EDMONTON       LGT RAIN  54  52  94 SE8       29.43R
CALGARY        PTSUNNY   57  34  41 W21G28    29.64F
LETHBRIDGE     MOSUNNY   72  27  18 W39G48    29.67R
MEDICINE HAT   MOSUNNY   79  27  14 SW32G41   29.61R
WATERTON GATE    N/A     64  28  25 SW24G41     N/A
CARDSTON         N/A     68  23  18 W22G36      N/A
MILK RIVER       N/A     72  27  18 W26G36      N/A
ONEFOUR          N/A     77  21  12 W29G37      N/A
$$

REGIONAL REPORTS...SASKATCHEWAN

CITY           SKY/WX    TMP DP  RH WIND       PRES   REMARKS
SWIFT CURRENT  SUNNY     75  43  31 W20       29.64R
REGINA         MOSUNNY   86  45  23 W12       29.56R SMOKE
SASKATOON      PTSUNNY   82  55  39 W16       29.52R
CYPRESS HILLS    N/A     70  25  18 W10G17      N/A
VAL MARIE        N/A     84  28  13 W10         N/A
ASSINIBOIA       N/A     64  52  63 S8          N/A
$$




USA.gov is the U.S. government's official web portal to all federal, state and local government web resources and services.